Meteo Giornale » Osservazioni meteo Stati Uniti (USA) » Palmdale Production Flight Plant
ore: 10:53 - Osservazioni Meteo Palmdale Production Flight Plant
Lat. 34° 37' N Lon. 118° 4' W Alt. 775 metri s.l.m.
28 °C
Sereno
Temp. 24 Ore
16 °C
31 °C
Ovest/Sud-Ovest
24 Km/h
Dew point -7 °C
Umidità 9 %
Visibilità 10 Km
Il sole sorge alle ore 06:25
Il sole tramonta alle ore 19:18
| Data e Ora | Cielo e Fenomeni | T °C | DP °C | Um. % | Pres. hPa | Vis. km | Vento km/h | |
|---|---|---|---|---|---|---|---|---|
| Oggi h: 10:53 | Sereno | 28 | -7 | 9 | 1016 | 10 | O/SO 24 | |
| Oggi h: 09:53 | Sereno | 26 | -7 | 10 | 1016 | 10 | S 18.5 | |
| Oggi h: 08:53 | Sereno | 22 | -2 | 19 | 1016 | 10 | NE 7.4 | |
| Oggi h: 07:53 | Sereno | 19 | -1 | 25 | 1016 | 10 | N 5.5 | |
| Oggi h: 06:53 | Sereno | 16 | -1 | 31 | 1016 | 10 | O 11.1 | |
| Oggi h: 05:53 | Sereno | 16 | -3 | 26 | 1015 | 10 | O 16.7 | |
| Oggi h: 04:53 | Sereno | 17 | -6 | 20 | 1015 | 10 | O/NO 14.8 | |
| Oggi h: 03:53 | Sereno | 17 | -6 | 20 | 1015 | 10 | O 16.7 | |
| Oggi h: 02:53 | Sereno | 18 | -6 | 18 | 1015 | 10 | O 18.5 | |
| Oggi h: 01:53 | Sereno | 20 | -3 | 20 | 1015 | 10 | O/SO 22.2 | |
| Oggi h: 00:53 | Sereno | 19 | -1 | 25 | 1016 | 10 | SO 16.7 | |
| Ieri h: 23:53 | Sereno | 19 | -2 | 24 | 1015 | 10 | O/SO 13 | |
| Ieri h: 22:53 | Sereno | 21 | 1 | 26 | 1015 | 10 | N 0 | |
| Ieri h: 21:53 | Sereno | 22 | 1 | 24 | 1015 | 10 | N 0 | |
| Ieri h: 20:53 | Sereno | 22 | 1 | 24 | 1014 | 10 | SO 22.2 | |
| Ieri h: 18:53 | Sereno | 27 | -1 | 15 | 1013 | 10 | O/SO 31.5 | |
| Ieri h: 17:53 | Sereno | 29 | -2 | 13 | 1013 | 10 | O/SO 35.2 | |
| Ieri h: 16:53 | Sereno | 30 | 2 | 16 | 1013 | 10 | SO 33.3 | |
| Ieri h: 15:53 | Sereno | 31 | 2 | 15 | 1013 | 10 | SO 29.6 | |
| Ieri h: 13:53 | Sereno | 31 | 2 | 15 | 1014 | 10 | O/SO 31.5 | |
| Ieri h: 12:53 | Sereno | 31 | 2 | 15 | 1014 | 10 | O 35.2 | |
| Ieri h: 11:53 | Sereno | 30 | 0 | 14 | 1015 | 10 | O/SO 24 | |



